Location: ??????
(55.8274°N, 37.9338°E)
Time: 11:22:46
(UTC+00:00)

Cosmos 1538 Rocket - Pass Details

Date: 14 April 2024
Orbit: 751 x 789 km, 74.0° (Epoch: 18 May)

Event Time Altitude Azimuth Distance (km) Brightness Sun altitude
Exits shadow 00:27:01 18° 194° (SSW) 1,856 5.5 -14.9°
Maximum altitude 00:31:01 71° 114° (ESE) 832 4.2 -14.5°
Drops below altitude 10° 00:36:20 10° 31° (NNE) 2,346 7.8 -14.0°
Sets 00:38:44 0° 30° (NNE) 3,272 8.7 -13.7°
